[[{"header":{"parameterUnit":"m.s-1","parameterCategory":2,"la1":30.2991,"la2":30.254,"lo1":-89.0895,"lo2":-89.0444,"dy":0.0017,"dx":0.0017,"nx":28,"ny":28,"refTime":"2024-05-12T09:00:00:Z","depth":"0","parameterNumber":2,"parameterNumberName":"U-component_of_CURRENTS"},"data":[0,0,0,0,0,0,0,0,0,0,0,0,0,0,0,0,0,0,0,0,0,0,0,0,0,0,0,0,0,0,0,0,0,0,0,0,0,0,0,0,0,0,0,0,0,0,0,0,0,0,0,0,0,0,0,0,0,0,-0.0209,-0.0209,0,-0.0225,-0.0225,-0.0225,-0.0204,-0.0204,-0.0203,-0.0202,-0.0173,-0.0173,-0.0172,0,0,0,0,0,0,0,0,0,0,0,0,0,-0.016,-0.0161,-0.0209,-0.0209,-0.0209,-0.0225,-0.0225,-0.0225,-0.0205,-0.0204,-0.0203,-0.0202,-0.0173,-0.0173,-0.0172,0,0,0,0,0,0,0,0,0,0,0,0,0,-0.0179,-0.0161,-0.0209,-0.0201,-0.0201,-0.0225,-0.0225,-0.0225,-0.0205,-0.0204,-0.0203,-0.0202,-0.0173,-0.0173,-0.0172,-0.0192,0,0,-0.0172,-0.0172,0,0,0,0,0,0,0,0,-0.0178,-0.018,-0.0202,-0.0202,-0.0201,-0.0212,-0.0197,-0.0212,-0.0205,-0.0203,-0.0202,-0.0201,-0.0183,-0.0182,-0.0187,-0.0191,-0.0189,-0.0172,-0.0172,-0.0172,-0.0171,0,0,0,0,0,0,0,-0.0176,-0.0179,-0.0214,-0.0202,-0.0202,-0.0197,-0.0199,-0.02,-0.0197,-0.0203,-0.0201,-0.0205,-0.0182,-0.0187,-0.0186,-0.0189,-0.0172,-0.0172,-0.0171,-0.0171,-0.0178,-0.0179,0,0,0,0,0,0,-0.0177,-0.0179,-0.0214,-0.0215,-0.0187,-0.0199,-0.0201,-0.0209,-0.0198,-0.0196,-0.0205,-0.0204,-0.0188,-0.0186,-0.0185,-0.0181,-0.0172,-0.0171,-0.0171,-0.0178,-0.0178,-0.0179,0,0,0,0,0,0,-0.0176,-0.018,-0.0213,-0.0197,-0.0201,-0.0201,-0.0211,-0.021,-0.0208,-0.0201,-0.0197,-0.0203,-0.0187,-0.0185,-0.0181,-0.0181,-0.0171,-0.0171,-0.0178,-0.0178,-0.0179,-0.0191,0,0,0,0,0,0,-0.0175,-0.018,-0.0185,-0.0197,-0.0202,-0.0225,-0.0212,-0.0211,-0.0212,-0.021,-0.0198,-0.0194,-0.0186,-0.0182,-0.0181,-0.018,-0.0171,-0.0177,-0.0178,-0.0178,-0.019,-0.0191,-0.0193,0,0,0,0,0,-0.0173,-0.0186,-0.0186,-0.019,-0.021,-0.0225,-0.0227,-0.0223,-0.0213,-0.0216,-0.0206,-0.0194,-0.0185,-0.0182,-0.0181,-0.018,-0.0177,-0.0178,-0.0178,-0.0189,-0.0191,-0.0193,0,0,0,0,0,0,-0.0165,-0.0186,-0.0185,-0.0203,-0.0211,-0.0222,-0.0226,-0.0223,-0.022,-0.0213,-0.0202,-0.0198,-0.0195,-0.0189,-0.0187,-0.0184,-0.0178,-0.0179,-0.0186,-0.0188,-0.019,-0.0173,-0.0171,0,0,0,0,0,-0.0168,-0.0182,-0.0197,-0.0209,-0.0215,-0.022,-0.0225,-0.0223,-0.0223,-0.022,-0.0213,-0.0205,-0.02,-0.0195,-0.0192,-0.0194,-0.0156,-0.0192,-0.0193,-0.0194,-0.0181,-0.0146,-0.0143,-0.0181,-0.0181,-0.0181,0,0,-0.0168,-0.0181,-0.0188,-0.0208,-0.0214,-0.0224,-0.022,-0.0228,-0.023,-0.0218,-0.0216,-0.0212,-0.0203,-0.0202,-0.02,-0.0195,-0.0158,-0.0195,-0.0196,-0.0182,-0.0146,-0.0142,-0.0139,-0.0182,-0.0181,-0.0181,0,0,-0.0176,-0.0187,-0.02,-0.021,-0.0222,-0.0226,-0.0228,-0.0238,-0.0234,-0.0238,-0.0227,-0.0217,-0.0219,-0.0206,-0.0201,-0.021,-0.017,-0.0215,-0.0206,-0.0173,-0.0169,-0.0165,-0.0084,-0.0073,-0.0213,-0.0213,-0.0213,0,-0.0172,-0.019,-0.0205,-0.0218,-0.0221,-0.0226,-0.0233,-0.0239,-0.0243,-0.0234,-0.0235,-0.022,-0.0216,-0.0201,-0.0205,-0.021,-0.0172,-0.02,-0.0173,-0.0169,-0.0164,-0.0083,-0.007,-0.0214,-0.0214,-0.0214,-0.0214,0,-0.0191,-0.02,-0.0208,-0.0224,-0.0232,-0.0239,-0.0248,-0.0247,-0.0242,-0.0239,-0.0226,-0.0222,-0.0203,-0.0211,-0.0211,-0.0184,-0.0158,-0.018,-0.0165,-0.0161,-0.0075,-0.0062,-0.0215,-0.0215,-0.0215,-0.0214,0,0,-0.0188,-0.0215,-0.0215,-0.0213,-0.0232,-0.0235,-0.024,-0.0237,-0.0219,-0.0227,-0.02,-0.0205,-0.0193,-0.0186,-0.0186,-0.0164,-0.0098,-0.0161,-0.0159,-0.0073,0.0016,0.019,0.0221,-0.0122,-0.012,-0.0119,0.0074,0,-0.019,-0.0206,-0.0222,-0.0224,-0.0227,-0.0231,-0.023,-0.0226,-0.0216,-0.0193,-0.0186,-0.0163,-0.0188,-0.0169,-0.0156,-0.0111,-0.0068,-0.0145,-0.0007,-0.0002,0.0158,0.024,0.0303,0.0493,0.0088,0.009,0.0091,0,-0.0198,-0.0203,-0.0209,-0.0205,-0.0207,-0.0207,-0.0185,-0.0187,-0.0165,-0.0154,-0.0136,-0.0122,-0.0081,-0.0112,-0.0019,-0.0068,-0.0022,0.0008,0.0016,0.0194,0.0197,0.0417,0.0533,0.0513,0.0112,0.0111,0.0109,0,-0.0173,-0.0188,-0.0185,-0.0188,-0.0193,-0.0183,-0.0181,-0.0166,-0.0143,-0.0118,-0.0067,-0.0055,0.0019,0.0028,0.0124,0.0044,0.0255,0.0151,0.0357,0.0371,0.0464,0.0485,0.0585,0.0224,0.0223,0.0223,0.0222,0,-0.0162,-0.0156,-0.0169,-0.0164,-0.0143,-0.0159,-0.0127,-0.0122,-0.009,-0.0023,-0.0035,0.0063,0.006,0.0183,0.0181,0.0378,0.0317,0.0407,0.0443,0.0467,0.0484,0.0502,0.0443,0.023,0.0228,0.0227,0.0226,0,-0.0131,-0.0145,-0.0135,-0.0136,-0.013,-0.0114,-0.0087,-0.0053,-0.0026,0.007,0.0095,0.02,0.038,0.0431,0.0528,0.054,0.064,0.0716,0.0785,0.0827,0.095,0.0889,0.0904,0.0888,0.0936,0.0942,0.0947,0,-0.0115,-0.0111,-0.0106,-0.0083,-0.0078,-0.0058,-0.0028,-0.0023,0.0028,0.0183,0.0258,0.0467,0.0646,0.09,0.0969,0.1078,0.0921,0.1184,0.1028,0.103,0.0984,0.0764,0.0729,0.1146,0.1152,0.1157,0.1161,0,-0.0073,-0.0075,-0.0062,-0.0025,0.0008,0.0043,0.009,0.0138,0.0194,0.0308,0.0527,0.0686,0.0992,0.1195,0.1385,0.1407,0.1127,0.1292,0.1247,0.1155,0.0964,0.0944,0.0965,0.1204,0.12,0.1197,0.1194,0.1193,-0.0028,-0.0009,0.0011,0.0055,0.0093,0.0166,0.0217,0.0296,0.0415,0.0619,0.0735,0.1008,0.129,0.1582,0.1607,0.1703,0.1493,0.1623,0.1553,0.1332,0.1301,0.1476,0.178,0.1779,0.1778,0.1777,0.1776,0,0.0048,0.0065,0.0099,0.0159,0.0225,0.0225,0.0321,0.0393,0.0567,0.0783,0.0989,0.1368,0.1623,0.1773,0.1955,0.1931,0.1707,0.1876,0.1532,0.1487,0.1644,0.1643,0.1988,0.1988,0.1987,0.1987,0.1987,0.1987,0.0096,0.0148,0.0161,0.0281,0.0326,0.0423,0.0487,0.0604,0.0748,0.1069,0.131,0.1487,0.1736,0.1962,0.2025,0.199,0.1743,0.1718,0.1612,0.1696,0.1662,0.1629,0.1614,0.1948,0.1948,0.1383,0.1379,0.1376]},{"header":{"parameterUnit":"m.s-1","parameterCategory":2,"la1":30.2991,"la2":30.254,"lo1":-89.0895,"lo2":-89.0444,"dy":0.0017,"dx":0.0017,"nx":28,"ny":28,"refTime":"2024-05-12T09:00:00:Z","depth":"0","parameterNumber":3,"parameterNumberName":"V-component_of_CURRENTS"},"data":[0,0,0,0,0,0,0,0,0,0,0,0,0,0,0,0,0,0,0,0,0,0,0,0,0,0,0,0,0,0,0,0,0,0,0,0,0,0,0,0,0,0,0,0,0,0,0,0,0,0,0,0,0,0,0,0,0,0,-0.0045,-0.0045,0,-0.0046,-0.0046,-0.0046,-0.0044,-0.0044,-0.0044,-0.0044,-0.0028,-0.0027,-0.0027,0,0,0,0,0,0,0,0,0,0,0,0,0,-0.0015,-0.0016,-0.0045,-0.0045,-0.0045,-0.0046,-0.0046,-0.0046,-0.0044,-0.0044,-0.0044,-0.0044,-0.0028,-0.0027,-0.0027,0,0,0,0,0,0,0,0,0,0,0,0,0,-0.0023,-0.0016,-0.0045,-0.0045,-0.0045,-0.0046,-0.0046,-0.0046,-0.0044,-0.0044,-0.0044,-0.0044,-0.0028,-0.0027,-0.0027,-0.0024,0,0,-0.0025,-0.0024,0,0,0,0,0,0,0,0,-0.0023,-0.0024,-0.0045,-0.0045,-0.0045,-0.0045,-0.0029,-0.0038,-0.0044,-0.0044,-0.0044,-0.0044,-0.0032,-0.0031,-0.0031,-0.0023,-0.0022,-0.0025,-0.0024,-0.0024,-0.0024,0,0,0,0,0,0,0,-0.0022,-0.0024,-0.0045,-0.0045,-0.0045,-0.0035,-0.0037,-0.0031,-0.0038,-0.0044,-0.0044,-0.0045,-0.0032,-0.0032,-0.0031,-0.0022,-0.0025,-0.0024,-0.0024,-0.0024,0.0005,0.0005,0,0,0,0,0,0,-0.0024,-0.0024,-0.0045,-0.0045,-0.0034,-0.0036,-0.0037,-0.0045,-0.0038,-0.0037,-0.0045,-0.0045,-0.0033,-0.0032,-0.003,-0.0021,-0.0024,-0.0023,-0.0023,0.0004,0.0005,0.0005,0,0,0,0,0,0,-0.0024,-0.0027,-0.0045,-0.0034,-0.0036,-0.0037,-0.0045,-0.0045,-0.0046,-0.0039,-0.0038,-0.0046,-0.0033,-0.0031,-0.0023,-0.002,-0.0023,-0.0023,0.0004,0.0005,0.0005,-0.0006,0,0,0,0,0,0,-0.0023,-0.0027,-0.0032,-0.0035,-0.0037,-0.0048,-0.0045,-0.0045,-0.0046,-0.0046,-0.004,-0.0038,-0.0033,-0.0024,-0.0023,-0.002,-0.0022,0.0004,0.0004,0.0005,-0.0006,-0.0006,-0.0005,0,0,0,0,0,-0.0022,-0.0029,-0.0032,-0.0035,-0.0044,-0.0048,-0.0048,-0.0048,-0.0047,-0.0048,-0.0041,-0.0038,-0.0019,-0.0024,-0.0022,-0.0019,0.0003,0.0004,0.0005,-0.0006,-0.0006,-0.0005,0,0,0,0,0,0,-0.0017,-0.003,-0.0033,-0.0043,-0.0046,-0.0048,-0.005,-0.0049,-0.0045,-0.0045,-0.0037,-0.0034,-0.0026,-0.0019,-0.0025,-0.0007,-0.0006,-0.0005,-0.0015,-0.0014,-0.0014,-0.0017,-0.0022,0,0,0,0,0,-0.002,-0.003,-0.0036,-0.0045,-0.0048,-0.0049,-0.005,-0.0051,-0.0048,-0.0047,-0.0041,-0.0032,-0.0021,-0.0016,-0.0008,0.0,0.002,0.0006,0.0006,0.0006,0.0005,0.0036,0.0039,0.0008,0.0008,0.0008,0,0,-0.002,-0.0028,-0.0034,-0.0045,-0.0048,-0.0053,-0.005,-0.0054,-0.0055,-0.0045,-0.0044,-0.0033,-0.0019,-0.001,-0.0005,-0.0004,0.0028,0.0007,0.0007,0.0006,0.0037,0.004,0.0043,0.0009,0.0009,0.0008,0,0,-0.0027,-0.0035,-0.0046,-0.005,-0.0057,-0.0056,-0.0058,-0.0061,-0.0059,-0.0055,-0.0045,-0.0033,-0.0022,-0.0009,-0.0001,0.0006,0.0027,0.0011,0.0009,0.0039,0.0042,0.0044,0.0085,0.0091,0.0012,0.0012,0.0012,0,-0.0026,-0.0045,-0.0048,-0.0058,-0.0063,-0.0059,-0.0068,-0.0064,-0.0062,-0.0059,-0.0056,-0.0031,-0.0021,-0.0004,0.0001,0.0006,0.0031,0.0005,0.0039,0.0042,0.0045,0.0086,0.0093,0.0012,0.0012,0.0012,0.0012,0,-0.0042,-0.0056,-0.0062,-0.0076,-0.0078,-0.0085,-0.0082,-0.008,-0.0075,-0.007,-0.0055,-0.0037,-0.0021,-0.0013,-0.0005,0.0021,0.0036,0.0034,0.0036,0.0047,0.009,0.0098,0.0011,0.0011,0.0011,0.0011,0,0,-0.0043,-0.007,-0.0072,-0.0084,-0.0089,-0.0094,-0.0091,-0.0089,-0.0081,-0.0074,-0.0061,-0.0043,-0.003,-0.0019,-0.0003,0.0023,0.0069,0.0038,0.0039,0.0075,0.0148,0.0157,0.0167,0.0074,0.0075,0.0075,0.0174,0,-0.0056,-0.0084,-0.009,-0.0109,-0.0122,-0.0116,-0.0111,-0.0104,-0.009,-0.0072,-0.0053,-0.0029,-0.0032,-0.0012,0.0007,0.0059,0.0087,0.0043,0.0135,0.0138,0.0142,0.0175,0.0156,0.0241,0.0181,0.0183,0.0184,0,-0.007,-0.0089,-0.0115,-0.0129,-0.0132,-0.0138,-0.0127,-0.0121,-0.0093,-0.0075,-0.0055,-0.0031,0.001,0.0008,0.0086,0.006,0.01,0.0135,0.014,0.0156,0.0161,0.022,0.0258,0.0191,0.0195,0.0194,0.0194,0,-0.0077,-0.0104,-0.0128,-0.0134,-0.0146,-0.015,-0.0149,-0.0127,-0.0094,-0.0069,-0.0018,-0.0005,0.0058,0.0078,0.0149,0.0124,0.0245,0.0218,0.0262,0.0264,0.027,0.027,0.0249,0.027,0.0269,0.0269,0.0269,0,-0.009,-0.0108,-0.0135,-0.0148,-0.0159,-0.0162,-0.0151,-0.014,-0.0087,-0.0015,-0.0015,0.0074,0.0086,0.0159,0.017,0.0254,0.0264,0.0274,0.0291,0.0267,0.0265,0.0224,0.0195,0.0273,0.0272,0.0271,0.0271,0,-0.0095,-0.0115,-0.0141,-0.0163,-0.0166,-0.0174,-0.0139,-0.0106,-0.0059,0.0045,0.0072,0.0166,0.0256,0.0267,0.0338,0.0326,0.036,0.0394,0.0369,0.0381,0.0322,0.0295,0.0324,0.0382,0.0443,0.0443,0.0444,0,-0.0099,-0.0117,-0.015,-0.0148,-0.016,-0.0161,-0.0136,-0.0101,-0.0026,0.013,0.0213,0.0318,0.0432,0.0513,0.0465,0.0468,0.0439,0.0468,0.0399,0.0326,0.0309,0.0278,0.0322,0.0412,0.0413,0.0413,0.0413,0,-0.0101,-0.0117,-0.0135,-0.0131,-0.0122,-0.0097,-0.0045,0.0026,0.0125,0.0244,0.045,0.0547,0.0604,0.061,0.0573,0.0555,0.0427,0.0474,0.0406,0.0291,0.0251,0.0313,0.0346,0.0416,0.0416,0.0416,0.0416,0.0415,-0.0089,-0.0099,-0.0108,-0.0097,-0.0074,0.0006,0.0073,0.0183,0.0331,0.0585,0.0642,0.0858,0.078,0.0717,0.0618,0.0434,0.0474,0.0393,0.0373,0.0354,0.0376,0.042,0.0498,0.0498,0.0498,0.0498,0.0498,0,-0.0054,-0.0059,-0.0056,-0.0021,0.0047,0.0043,0.018,0.0304,0.0526,0.0759,0.0961,0.1116,0.0956,0.0785,0.0498,0.0355,0.0318,0.0296,0.0226,0.029,0.0327,0.0288,0.0315,0.0315,0.0315,0.0316,0.0316,0.0316,-0.0029,-0.0014,-0.0011,0.01,0.0145,0.0286,0.0386,0.0571,0.0772,0.1134,0.1361,0.1517,0.1438,0.0733,0.033,0.0245,0.0197,0.0129,0.0187,0.0141,0.0146,0.0152,0.0107,0.0095,0.0095,0.0157,0.0157,0.0157]}],[{"header":{"parameterUnit":"m.s-1","parameterCategory":2,"la1":30.2991,"la2":30.254,"lo1":-89.0895,"lo2":-89.0444,"dy":0.0017,"dx":0.0017,"nx":28,"ny":28,"refTime":"2024-05-12T09:00:00:Z","depth":"2","parameterNumber":2,"parameterNumberName":"U-component_of_CURRENTS"},"data":[0,0,0,0,0,0,0,0,0,0,0,0,0,0,0,0,0,0,0,0,0,0,0,0,0,0,0,0,0,0,0,0,0,0,0,0,0,0,0,0,0,0,0,0,0,0,0,0,0,0,0,0,0,0,0,0,0,0,-0.0235,-0.0235,0,-0.025,-0.025,-0.025,-0.0229,-0.0228,-0.0228,-0.0227,-0.0199,-0.0199,-0.0199,0,0,0,0,0,0,0,0,0,0,0,0,0,-0.0194,-0.0195,-0.0235,-0.0235,-0.0236,-0.025,-0.025,-0.025,-0.0229,-0.0228,-0.0228,-0.0227,-0.0199,-0.0199,-0.0199,0,0,0,0,0,0,0,0,0,0,0,0,0,-0.021,-0.0195,-0.0235,-0.0227,-0.0227,-0.025,-0.025,-0.025,-0.0229,-0.0228,-0.0227,-0.0226,-0.0199,-0.0199,-0.0198,-0.0218,0,0,-0.0198,-0.0198,0,0,0,0,0,0,0,0,-0.0209,-0.0211,-0.0228,-0.0228,-0.0227,-0.0237,-0.0225,-0.0237,-0.023,-0.0228,-0.0227,-0.0226,-0.0209,-0.0208,-0.0213,-0.0217,-0.0216,-0.0198,-0.0198,-0.0198,-0.0198,0,0,0,0,0,0,0,-0.0208,-0.0211,-0.024,-0.0229,-0.0228,-0.0225,-0.0226,-0.0227,-0.0223,-0.0228,-0.0227,-0.0229,-0.0208,-0.0213,-0.0212,-0.0215,-0.0198,-0.0198,-0.0198,-0.0198,-0.0206,-0.0206,0,0,0,0,0,0,-0.0208,-0.021,-0.024,-0.0241,-0.0216,-0.0226,-0.0227,-0.0234,-0.0224,-0.0221,-0.023,-0.0228,-0.0214,-0.0212,-0.021,-0.0208,-0.0198,-0.0198,-0.0198,-0.0206,-0.0206,-0.0207,0,0,0,0,0,0,-0.0207,-0.0211,-0.0239,-0.0226,-0.0229,-0.0228,-0.0236,-0.0235,-0.0233,-0.0226,-0.0222,-0.0228,-0.0213,-0.0211,-0.0208,-0.0207,-0.0198,-0.0197,-0.0205,-0.0206,-0.0206,-0.0219,0,0,0,0,0,0,-0.0206,-0.0211,-0.0215,-0.0226,-0.023,-0.025,-0.0237,-0.0236,-0.0237,-0.0234,-0.0223,-0.022,-0.0212,-0.0208,-0.0208,-0.0207,-0.0197,-0.0205,-0.0206,-0.0206,-0.0218,-0.022,-0.0221,0,0,0,0,0,-0.0205,-0.0216,-0.0215,-0.0219,-0.0236,-0.025,-0.0252,-0.0247,-0.0238,-0.0241,-0.0232,-0.022,-0.0211,-0.0209,-0.0208,-0.0207,-0.0205,-0.0205,-0.0206,-0.0217,-0.0219,-0.0221,0,0,0,0,0,0,-0.0199,-0.0215,-0.0214,-0.0229,-0.0237,-0.0247,-0.0251,-0.0248,-0.0245,-0.0239,-0.0227,-0.0224,-0.0221,-0.0216,-0.0213,-0.0212,-0.0205,-0.0206,-0.0214,-0.0216,-0.0217,-0.0202,-0.0197,0,0,0,0,0,-0.0201,-0.0212,-0.0226,-0.0236,-0.0241,-0.0246,-0.025,-0.0248,-0.0248,-0.0246,-0.0239,-0.0231,-0.0227,-0.0222,-0.022,-0.0222,-0.0184,-0.022,-0.0222,-0.0223,-0.021,-0.0175,-0.0172,-0.0209,-0.0209,-0.0209,0,0,-0.0201,-0.0211,-0.0217,-0.0235,-0.024,-0.025,-0.0245,-0.0253,-0.0255,-0.0244,-0.0242,-0.0238,-0.023,-0.023,-0.0228,-0.0222,-0.0188,-0.0224,-0.0225,-0.0211,-0.0175,-0.0172,-0.0168,-0.0209,-0.0209,-0.0209,0,0,-0.0208,-0.0217,-0.0228,-0.0237,-0.0248,-0.0252,-0.0254,-0.0264,-0.026,-0.0264,-0.0254,-0.0245,-0.0247,-0.0235,-0.023,-0.0239,-0.02,-0.0244,-0.0236,-0.0203,-0.0199,-0.0195,-0.0117,-0.0106,-0.0243,-0.0243,-0.0243,0,-0.0205,-0.022,-0.0233,-0.0245,-0.0248,-0.0253,-0.026,-0.0265,-0.027,-0.0261,-0.0262,-0.0248,-0.0244,-0.0231,-0.0235,-0.024,-0.0202,-0.023,-0.0203,-0.0199,-0.0195,-0.0115,-0.0103,-0.0243,-0.0243,-0.0243,-0.0243,0,-0.0222,-0.0229,-0.0237,-0.0251,-0.0259,-0.0266,-0.0275,-0.0275,-0.0271,-0.0268,-0.0256,-0.0252,-0.0234,-0.0241,-0.0241,-0.0216,-0.0189,-0.0211,-0.0195,-0.0192,-0.0108,-0.0095,-0.0244,-0.0244,-0.0244,-0.0244,0,0,-0.0218,-0.0243,-0.0243,-0.0242,-0.026,-0.0264,-0.0269,-0.0267,-0.0251,-0.0259,-0.0233,-0.0239,-0.0226,-0.0219,-0.0218,-0.0196,-0.0132,-0.0193,-0.0191,-0.0107,-0.002,0.0145,0.0175,-0.0154,-0.0152,-0.0151,0.0037,0,-0.0221,-0.0235,-0.025,-0.0253,-0.0257,-0.0262,-0.0262,-0.0259,-0.025,-0.0228,-0.0221,-0.0198,-0.0222,-0.0203,-0.019,-0.0145,-0.0103,-0.0178,-0.0042,-0.0036,0.0115,0.0194,0.011,0.0283,0.005,0.0052,0.0054,0,-0.0227,-0.0233,-0.0238,-0.0237,-0.0239,-0.0241,-0.0221,-0.0224,-0.0203,-0.0193,-0.0175,-0.016,-0.012,-0.0148,-0.0057,-0.0104,-0.0058,-0.0028,-0.002,0.0149,0.0153,0.0236,0.0316,0.0076,0.0074,0.0072,0.0071,0,-0.0204,-0.0219,-0.0217,-0.022,-0.0227,-0.0218,-0.0218,-0.0204,-0.0182,-0.0158,-0.0108,-0.0095,-0.0021,-0.0013,0.0083,0.0006,0.0213,0.0111,0.0309,0.0322,0.029,0.03,0.0183,0.0183,0.0183,0.0182,0.0182,0,-0.0194,-0.0189,-0.0202,-0.0198,-0.0179,-0.0197,-0.0166,-0.0162,-0.0131,-0.0064,-0.0076,0.002,0.0019,0.014,0.0139,0.0329,0.0273,0.0357,0.0392,0.029,0.0296,0.0128,0.012,0.0189,0.0188,0.0186,0.0185,0,-0.0164,-0.0177,-0.0169,-0.0172,-0.0167,-0.0152,-0.0127,-0.0093,-0.0067,0.0028,0.0053,0.0156,0.0331,0.0381,0.0477,0.0487,0.058,0.0657,0.0581,0.0606,0.0635,0.0623,0.0852,0.0859,0.0866,0.0871,0.0876,0,-0.0148,-0.0145,-0.0141,-0.0119,-0.0115,-0.0097,-0.0068,-0.0063,-0.0011,0.014,0.0214,0.0418,0.0585,0.0829,0.0872,0.0969,0.0865,0.0957,0.0784,0.0699,0.0709,0.0686,0.0666,0.073,0.0733,0.0735,0.0737,0,-0.011,-0.0111,-0.0099,-0.0062,-0.003,0.0005,0.0052,0.01,0.0155,0.0267,0.0479,0.0625,0.0891,0.101,0.1181,0.1175,0.0917,0.1018,0.0956,0.06,0.0607,0.0609,0.0588,0.0759,0.0757,0.0755,0.0754,0.0753,-0.0068,-0.0049,-0.0028,0.0016,0.0054,0.0128,0.0179,0.0257,0.0374,0.0562,0.0671,0.0885,0.0962,0.1215,0.1221,0.12,0.1228,0.1097,0.1078,0.1059,0.1038,0.1058,0.1293,0.1294,0.1294,0.1295,0.1296,0,0.0001,0.0023,0.0057,0.0118,0.0185,0.0187,0.0283,0.0351,0.052,0.0695,0.088,0.0941,0.1099,0.1147,0.1173,0.1205,0.1034,0.1124,0.0864,0.085,0.0835,0.0788,0.0984,0.0983,0.0981,0.098,0,0,0.0045,0.0097,0.0113,0.0236,0.0285,0.0383,0.0448,0.0551,0.0662,0.0831,0.0948,0.1127,0.1185,0.1092,0.1082,0.1048,0.091,0.0993,0.1257,0.0942,0.0924,0.0861,0.0783,0,0,0,0,0]},{"header":{"parameterUnit":"m.s-1","parameterCategory":2,"la1":30.2991,"la2":30.254,"lo1":-89.0895,"lo2":-89.0444,"dy":0.0017,"dx":0.0017,"nx":28,"ny":28,"refTime":"2024-05-12T09:00:00:Z","depth":"2","parameterNumber":3,"parameterNumberName":"V-component_of_CURRENTS"},"data":[0,0,0,0,0,0,0,0,0,0,0,0,0,0,0,0,0,0,0,0,0,0,0,0,0,0,0,0,0,0,0,0,0,0,0,0,0,0,0,0,0,0,0,0,0,0,0,0,0,0,0,0,0,0,0,0,0,0,-0.013,-0.013,0,-0.0131,-0.0131,-0.0131,-0.0125,-0.0125,-0.0125,-0.0124,-0.0105,-0.0104,-0.0104,0,0,0,0,0,0,0,0,0,0,0,0,0,-0.0097,-0.0098,-0.013,-0.013,-0.013,-0.0131,-0.0131,-0.0131,-0.0125,-0.0125,-0.0125,-0.0124,-0.0105,-0.0104,-0.0104,0,0,0,0,0,0,0,0,0,0,0,0,0,-0.0106,-0.0098,-0.013,-0.0127,-0.0127,-0.0131,-0.0131,-0.0131,-0.0125,-0.0125,-0.0125,-0.0124,-0.0105,-0.0104,-0.0104,-0.0104,0,0,-0.0102,-0.0102,0,0,0,0,0,0,0,0,-0.0105,-0.0107,-0.0128,-0.0127,-0.0127,-0.0128,-0.0112,-0.0121,-0.0125,-0.0125,-0.0124,-0.0124,-0.0111,-0.011,-0.011,-0.0103,-0.0102,-0.0102,-0.0101,-0.0101,-0.0101,0,0,0,0,0,0,0,-0.0105,-0.0107,-0.013,-0.0128,-0.0127,-0.0117,-0.0119,-0.0113,-0.0119,-0.0125,-0.0125,-0.0126,-0.011,-0.0111,-0.011,-0.0102,-0.0102,-0.0101,-0.0101,-0.0101,-0.0075,-0.0075,0,0,0,0,0,0,-0.0107,-0.0106,-0.013,-0.013,-0.0116,-0.0118,-0.012,-0.0128,-0.0119,-0.0118,-0.0126,-0.0125,-0.0112,-0.011,-0.0109,-0.0099,-0.0101,-0.0101,-0.01,-0.0076,-0.0075,-0.0075,0,0,0,0,0,0,-0.0106,-0.0109,-0.013,-0.0118,-0.012,-0.0119,-0.0128,-0.0128,-0.0128,-0.012,-0.0118,-0.0126,-0.0112,-0.011,-0.0102,-0.0098,-0.01,-0.01,-0.0076,-0.0076,-0.0075,-0.0085,0,0,0,0,0,0,-0.0106,-0.0109,-0.0115,-0.0118,-0.012,-0.0133,-0.0128,-0.0128,-0.0129,-0.0128,-0.012,-0.0118,-0.0111,-0.0103,-0.0101,-0.0098,-0.0099,-0.0077,-0.0076,-0.0075,-0.0085,-0.0085,-0.0085,0,0,0,0,0,-0.0105,-0.0113,-0.0115,-0.0118,-0.0129,-0.0133,-0.0134,-0.0132,-0.0129,-0.0131,-0.0122,-0.0118,-0.0098,-0.0102,-0.01,-0.0097,-0.0077,-0.0076,-0.0075,-0.0086,-0.0085,-0.0085,0,0,0,0,0,0,-0.0101,-0.0114,-0.0116,-0.0128,-0.0131,-0.0133,-0.0135,-0.0133,-0.0128,-0.0127,-0.0117,-0.0115,-0.0106,-0.0099,-0.0104,-0.0086,-0.0085,-0.0084,-0.0094,-0.0093,-0.0093,-0.0095,-0.0099,0,0,0,0,0,-0.0103,-0.0115,-0.0122,-0.0131,-0.0134,-0.0135,-0.0136,-0.0135,-0.0132,-0.013,-0.0124,-0.0113,-0.0102,-0.0097,-0.0088,-0.0081,-0.0061,-0.0076,-0.0076,-0.0076,-0.0075,-0.0044,-0.0041,-0.0073,-0.0073,-0.0073,0,0,-0.0105,-0.0113,-0.012,-0.0131,-0.0134,-0.014,-0.0135,-0.0139,-0.014,-0.0128,-0.0126,-0.0115,-0.01,-0.0091,-0.0086,-0.0085,-0.0054,-0.0075,-0.0075,-0.0074,-0.0043,-0.004,-0.0037,-0.0072,-0.0072,-0.0073,0,0,-0.0114,-0.0122,-0.0135,-0.0138,-0.0145,-0.0144,-0.0146,-0.0148,-0.0144,-0.0141,-0.0129,-0.0116,-0.0105,-0.0091,-0.0083,-0.0077,-0.0056,-0.0073,-0.0073,-0.0043,-0.004,-0.0038,-0.0,0.0006,-0.0072,-0.0072,-0.0072,0,-0.0114,-0.0134,-0.0137,-0.0148,-0.0152,-0.0147,-0.0156,-0.0152,-0.0149,-0.0144,-0.0141,-0.0114,-0.0104,-0.0085,-0.0081,-0.0077,-0.0053,-0.0077,-0.0043,-0.004,-0.0037,0.0001,0.0007,-0.0072,-0.0072,-0.0072,-0.0072,0,-0.0133,-0.0147,-0.0154,-0.0167,-0.0169,-0.0176,-0.0172,-0.0168,-0.0162,-0.0155,-0.0138,-0.012,-0.0103,-0.0096,-0.0087,-0.006,-0.0047,-0.0048,-0.0045,-0.0034,0.0005,0.0012,-0.0073,-0.0072,-0.0072,-0.0072,0,0,-0.0137,-0.0163,-0.0165,-0.0175,-0.018,-0.0184,-0.018,-0.0176,-0.0166,-0.0158,-0.0143,-0.0123,-0.011,-0.0099,-0.0082,-0.0056,-0.0012,-0.0043,-0.0041,-0.0008,0.0065,0.0063,0.0071,-0.0006,-0.0005,-0.0004,0.0087,0,-0.0151,-0.0179,-0.0184,-0.0201,-0.0213,-0.0205,-0.0199,-0.019,-0.0175,-0.0157,-0.0135,-0.0111,-0.0112,-0.0092,-0.0071,-0.0023,0.0006,-0.0036,0.0052,0.0055,0.005,0.0079,-0.001,0.0062,0.0094,0.0095,0.0096,0,-0.0167,-0.0184,-0.0209,-0.0219,-0.0222,-0.0226,-0.0212,-0.0205,-0.0176,-0.0158,-0.0135,-0.0112,-0.007,-0.0071,0.0006,-0.0019,0.002,0.0054,0.0058,0.0064,0.0066,0.0056,0.0074,0.0109,0.0108,0.0107,0.0106,0,-0.0173,-0.0199,-0.022,-0.0225,-0.0234,-0.0236,-0.0233,-0.0209,-0.0178,-0.0152,-0.0106,-0.0087,-0.0028,-0.0005,0.0064,0.0041,0.0156,0.0132,0.0167,0.0168,0.0113,0.0107,0.0185,0.0185,0.0185,0.0185,0.0185,0,-0.0186,-0.0201,-0.0226,-0.0238,-0.0246,-0.0247,-0.0235,-0.0222,-0.0172,-0.0105,-0.0102,-0.0022,-0.0002,0.0067,0.0082,0.0159,0.0174,0.0177,0.0192,0.0108,0.01,0.0151,0.0146,0.0188,0.0187,0.0187,0.0186,0,-0.019,-0.0209,-0.0232,-0.0251,-0.0253,-0.0258,-0.0225,-0.0194,-0.0149,-0.0054,-0.0029,0.0058,0.0142,0.0159,0.023,0.0221,0.0263,0.0286,0.0189,0.019,0.0246,0.0239,0.032,0.0321,0.0321,0.0322,0.0322,0,-0.0194,-0.0211,-0.024,-0.0239,-0.0248,-0.0248,-0.0225,-0.0191,-0.0122,0.002,0.0095,0.0191,0.0282,0.0358,0.0307,0.0309,0.0333,0.0265,0.0193,0.0254,0.0261,0.0253,0.0246,0.0123,0.0122,0.0121,0.012,0,-0.0198,-0.0212,-0.0228,-0.0224,-0.0215,-0.0192,-0.0143,-0.008,0.0013,0.0119,0.0302,0.0375,0.0405,0.037,0.0334,0.0311,0.0239,0.0246,0.035,0.0098,0.0074,0.0079,0.0077,0.0111,0.0112,0.0112,0.0113,0.0113,-0.0189,-0.0197,-0.0205,-0.0196,-0.0173,-0.01,-0.0039,0.0059,0.019,0.0399,0.0446,0.0574,0.0447,0.0396,0.0298,0.0189,0.0218,0.0179,0.018,0.0182,0.0138,0.0116,0.0154,0.0155,0.0156,0.0156,0.0157,0,-0.0165,-0.0166,-0.0161,-0.0129,-0.0068,-0.0066,0.0058,0.0154,0.0349,0.0509,0.0664,0.0573,0.0493,0.0381,0.0176,0.0073,0.0023,0.0062,0.0,0.0009,0.0016,-0.0038,-0.0068,-0.0068,-0.0068,-0.0069,0,0,-0.0147,-0.0135,-0.0132,-0.0029,0.0018,0.0143,0.0234,0.0366,0.0502,0.0662,0.0749,0.0794,0.0585,0.0409,0.0197,0.0081,0.009,0.0057,0.0237,0.0192,0.0203,0.0068,-0.0007,0,0,0,0,0]}],[{"header":{"parameterUnit":"m.s-1","parameterCategory":2,"la1":30.2991,"la2":30.254,"lo1":-89.0895,"lo2":-89.0444,"dy":0.0017,"dx":0.0017,"nx":28,"ny":28,"refTime":"2024-05-12T09:00:00:Z","depth":"4","parameterNumber":2,"parameterNumberName":"U-component_of_CURRENTS"},"data":[0,0,0,0,0,0,0,0,0,0,0,0,0,0,0,0,0,0,0,0,0,0,0,0,0,0,0,0,0,0,0,0,0,0,0,0,0,0,0,0,0,0,0,0,0,0,0,0,0,0,0,0,0,0,0,0,0,0,-0.0231,-0.0232,0,-0.0237,-0.0237,-0.0238,-0.0226,-0.0226,-0.0226,-0.0225,-0.0215,-0.0215,-0.0215,0,0,0,0,0,0,0,0,0,0,0,0,0,-0.024,-0.024,-0.0231,-0.0232,-0.0232,-0.0237,-0.0237,-0.0238,-0.0226,-0.0226,-0.0226,-0.0225,-0.0215,-0.0215,-0.0215,0,0,0,0,0,0,0,0,0,0,0,0,0,-0.024,-0.024,-0.0231,-0.0227,-0.0226,-0.0237,-0.0237,-0.0238,-0.0227,-0.0226,-0.0225,-0.0225,-0.0215,-0.0215,-0.0215,-0.0227,0,0,-0.0216,-0.0216,0,0,0,0,0,0,0,0,-0.024,-0.024,-0.0227,-0.0227,-0.0227,-0.0231,-0.0237,-0.0233,-0.0227,-0.0227,-0.0225,-0.0225,-0.0219,-0.0219,-0.0222,-0.0227,-0.0226,-0.0216,-0.0216,-0.0216,-0.0216,0,0,0,0,0,0,0,-0.024,-0.024,-0.0234,-0.0227,-0.0227,-0.0234,-0.0234,-0.0236,-0.0226,-0.0227,-0.0226,-0.0226,-0.0219,-0.0222,-0.0221,-0.0226,-0.0216,-0.0216,-0.0216,-0.0216,-0.023,-0.0231,0,0,0,0,0,0,-0.0238,-0.024,-0.0234,-0.0234,-0.0232,-0.0235,-0.0234,-0.023,-0.0226,-0.0225,-0.0227,-0.0226,-0.0222,-0.0221,-0.0221,-0.0228,-0.0216,-0.0216,-0.0216,-0.023,-0.023,-0.0231,0,0,0,0,0,0,-0.0238,-0.0238,-0.0233,-0.0237,-0.0237,-0.0235,-0.0231,-0.023,-0.0231,-0.0226,-0.0225,-0.0228,-0.0221,-0.0221,-0.0225,-0.0228,-0.0216,-0.0216,-0.023,-0.023,-0.0231,-0.0246,0,0,0,0,0,0,-0.0239,-0.0237,-0.0235,-0.0237,-0.0237,-0.024,-0.0231,-0.0231,-0.0233,-0.0232,-0.0227,-0.0226,-0.0221,-0.0225,-0.0226,-0.0227,-0.0216,-0.0229,-0.023,-0.023,-0.0245,-0.0247,-0.0249,0,0,0,0,0,-0.0239,-0.0238,-0.0235,-0.0234,-0.0233,-0.024,-0.0241,-0.0237,-0.0233,-0.0236,-0.0235,-0.0226,-0.0229,-0.0226,-0.0226,-0.0228,-0.0229,-0.023,-0.023,-0.0245,-0.0247,-0.0249,0,0,0,0,0,0,-0.0243,-0.0236,-0.0234,-0.0231,-0.0235,-0.0238,-0.024,-0.024,-0.0242,-0.024,-0.0234,-0.0233,-0.0237,-0.0233,-0.023,-0.0234,-0.0226,-0.0227,-0.0237,-0.0239,-0.0241,-0.0231,-0.0216,0,0,0,0,0,-0.0242,-0.0236,-0.0238,-0.0235,-0.0238,-0.024,-0.0243,-0.0242,-0.0244,-0.0244,-0.0244,-0.0241,-0.0241,-0.024,-0.0241,-0.0246,-0.0215,-0.0246,-0.0248,-0.0249,-0.0241,-0.0206,-0.0204,-0.0233,-0.0233,-0.0233,0,0,-0.0242,-0.0239,-0.0235,-0.0236,-0.0238,-0.0245,-0.024,-0.0245,-0.0251,-0.0244,-0.0252,-0.025,-0.0245,-0.0249,-0.025,-0.0245,-0.0222,-0.025,-0.0251,-0.0242,-0.0207,-0.0203,-0.0201,-0.0234,-0.0233,-0.0233,0,0,-0.0243,-0.0238,-0.0235,-0.024,-0.0245,-0.0249,-0.0251,-0.0258,-0.0259,-0.0269,-0.0263,-0.026,-0.0267,-0.0259,-0.0256,-0.0268,-0.0234,-0.0272,-0.0271,-0.0237,-0.0234,-0.0231,-0.0174,-0.0165,-0.0271,-0.0271,-0.0271,0,-0.0245,-0.0239,-0.0237,-0.0242,-0.0247,-0.0251,-0.0258,-0.0264,-0.0272,-0.027,-0.0273,-0.0269,-0.0268,-0.0261,-0.0266,-0.027,-0.0238,-0.0264,-0.0238,-0.0234,-0.0231,-0.0173,-0.0164,-0.0272,-0.0272,-0.0271,-0.0271,0,-0.0245,-0.0245,-0.0246,-0.025,-0.0258,-0.0265,-0.0274,-0.028,-0.0284,-0.0285,-0.0282,-0.028,-0.0269,-0.0275,-0.0276,-0.0256,-0.0236,-0.0245,-0.023,-0.0228,-0.0168,-0.0158,-0.0273,-0.0273,-0.0272,-0.0272,0,0,-0.0238,-0.0244,-0.0244,-0.0249,-0.0263,-0.0269,-0.028,-0.0285,-0.0281,-0.029,-0.0277,-0.0284,-0.0272,-0.0268,-0.0265,-0.0244,-0.0194,-0.0237,-0.0234,-0.0174,-0.0098,-0.0111,-0.0101,-0.02,-0.0198,-0.0197,-0.006,0,-0.0239,-0.0243,-0.0249,-0.0262,-0.0267,-0.0278,-0.0286,-0.0291,-0.029,-0.028,-0.0273,-0.0259,-0.0273,-0.0259,-0.0243,-0.0207,-0.017,-0.0229,-0.0112,-0.0108,-0.0116,-0.0091,-0.0193,-0.0052,-0.005,-0.0048,-0.0047,0,-0.0235,-0.0239,-0.0247,-0.0261,-0.0265,-0.0275,-0.0278,-0.0286,-0.0275,-0.0268,-0.0252,-0.0238,-0.0206,-0.0219,-0.0143,-0.018,-0.0136,-0.0109,-0.0103,-0.0102,-0.0104,-0.0058,-0.0028,-0.003,-0.0031,-0.0032,-0.0033,0,-0.0223,-0.0238,-0.0242,-0.0248,-0.0266,-0.0271,-0.0281,-0.0279,-0.0264,-0.0247,-0.0211,-0.0196,-0.0145,-0.012,-0.0069,-0.0096,0.0022,-0.0003,0.0034,0.0036,0.0014,0.0009,0.0065,0.0065,0.0065,0.0064,0.0064,0,-0.0216,-0.0221,-0.0237,-0.024,-0.0245,-0.0264,-0.0256,-0.026,-0.0236,-0.0188,-0.0194,-0.0125,-0.0115,-0.0052,-0.0039,0.0036,0.0057,0.0051,0.0069,0.0005,-0.0002,0.0023,0.0016,0.0069,0.0068,0.0067,0.0066,0,-0.0198,-0.0207,-0.0214,-0.0233,-0.0237,-0.0241,-0.0233,-0.0211,-0.0196,-0.0126,-0.0106,-0.0039,0.0062,0.0073,0.0148,0.0111,0.0154,0.0178,0.0137,0.0147,0.0143,0.0133,0.024,0.0241,0.0241,0.0242,0.0242,0,-0.0189,-0.019,-0.0203,-0.0196,-0.0204,-0.0207,-0.0192,-0.019,-0.0154,-0.0051,0.0001,0.0116,0.0163,0.0274,0.0255,0.0281,0.0266,0.0256,0.0164,0.0154,0.016,0.015,0.014,0.0243,0.0243,0.0243,0.0244,0,-0.0175,-0.0177,-0.0178,-0.0163,-0.0152,-0.0134,-0.0114,-0.0081,-0.0041,-0.0016,0.0132,0.0183,0.0307,0.0335,0.0351,0.0356,0.0224,0.0261,0.0259,0.0174,0.0159,0.0162,0.0152,0.0245,0.0245,0.0245,0.0245,0,-0.0163,-0.0153,-0.0144,-0.0128,-0.0103,-0.0059,-0.0061,0.0007,0.0046,0.0139,0.0207,0.0313,0.0369,0.0382,0.0398,0.0391,0.0373,0.0296,0.0291,0.0289,0.0224,0.0207,0.0342,0,0,0,0,0,-0.0157,-0.0129,-0.0106,-0.0078,-0.0045,-0.0032,0.0003,0.0006,0.005,0.0166,0.0181,0.0298,0.0362,0.0397,0.0402,0.0382,0.0343,0.0373,0.0244,0.0256,0.0254,0.0162,0,0,0,0,0,0,-0.0147,-0.0123,-0.0098,-0.003,0.0001,0.0043,0.0066,0.0092,0.0143,0.0191,0.025,0.0255,0.0336,0.0394,0.0405,0.0401,0.0299,0.0406,0.0403,0.0257,0.0255,0.0253,0.0158,0,0,0,0,0]},{"header":{"parameterUnit":"m.s-1","parameterCategory":2,"la1":30.2991,"la2":30.254,"lo1":-89.0895,"lo2":-89.0444,"dy":0.0017,"dx":0.0017,"nx":28,"ny":28,"refTime":"2024-05-12T09:00:00:Z","depth":"4","parameterNumber":3,"parameterNumberName":"V-component_of_CURRENTS"},"data":[0,0,0,0,0,0,0,0,0,0,0,0,0,0,0,0,0,0,0,0,0,0,0,0,0,0,0,0,0,0,0,0,0,0,0,0,0,0,0,0,0,0,0,0,0,0,0,0,0,0,0,0,0,0,0,0,0,0,-0.021,-0.021,0,-0.0211,-0.0211,-0.0211,-0.0193,-0.0193,-0.0193,-0.0192,-0.0159,-0.0159,-0.0158,0,0,0,0,0,0,0,0,0,0,0,0,0,-0.0166,-0.0167,-0.021,-0.021,-0.021,-0.0211,-0.0211,-0.0211,-0.0193,-0.0193,-0.0192,-0.0192,-0.016,-0.0159,-0.0158,0,0,0,0,0,0,0,0,0,0,0,0,0,-0.0176,-0.0167,-0.021,-0.0203,-0.0202,-0.0211,-0.0211,-0.0211,-0.0193,-0.0193,-0.0192,-0.0192,-0.016,-0.0159,-0.0158,-0.0163,0,0,-0.0156,-0.0155,0,0,0,0,0,0,0,0,-0.0176,-0.0178,-0.0204,-0.0203,-0.0203,-0.0203,-0.0183,-0.0194,-0.0193,-0.0195,-0.0192,-0.0192,-0.0172,-0.017,-0.017,-0.0162,-0.016,-0.0156,-0.0155,-0.0155,-0.0154,0,0,0,0,0,0,0,-0.0175,-0.0177,-0.0209,-0.0204,-0.0203,-0.019,-0.0191,-0.0185,-0.0185,-0.0195,-0.0194,-0.0197,-0.0171,-0.0171,-0.0169,-0.016,-0.0156,-0.0155,-0.0154,-0.0154,-0.0135,-0.0135,0,0,0,0,0,0,-0.018,-0.0177,-0.0209,-0.0209,-0.019,-0.0192,-0.0193,-0.0202,-0.0185,-0.0183,-0.0197,-0.0196,-0.0172,-0.017,-0.0168,-0.0156,-0.0155,-0.0154,-0.0153,-0.0135,-0.0135,-0.0135,0,0,0,0,0,0,-0.018,-0.0183,-0.0209,-0.0194,-0.0196,-0.0194,-0.0204,-0.0202,-0.0202,-0.0188,-0.0184,-0.0199,-0.0172,-0.0169,-0.016,-0.0155,-0.0153,-0.0153,-0.0135,-0.0135,-0.0135,-0.0144,0,0,0,0,0,0,-0.0178,-0.0183,-0.0192,-0.0195,-0.0197,-0.0217,-0.0204,-0.0203,-0.0206,-0.0204,-0.0188,-0.0185,-0.0171,-0.0161,-0.0159,-0.0154,-0.0152,-0.0135,-0.0135,-0.0135,-0.0144,-0.0144,-0.0145,0,0,0,0,0,-0.0177,-0.0194,-0.0192,-0.0196,-0.021,-0.0217,-0.0218,-0.0212,-0.0206,-0.0209,-0.0195,-0.0185,-0.0159,-0.0161,-0.0158,-0.0153,-0.0135,-0.0135,-0.0135,-0.0143,-0.0144,-0.0145,0,0,0,0,0,0,-0.0179,-0.0194,-0.0192,-0.0213,-0.0215,-0.0215,-0.0222,-0.0216,-0.0208,-0.0206,-0.0187,-0.0183,-0.0172,-0.0165,-0.0166,-0.0148,-0.0145,-0.0145,-0.0152,-0.0153,-0.0153,-0.0147,-0.0151,0,0,0,0,0,-0.0185,-0.0202,-0.0207,-0.0223,-0.0227,-0.0224,-0.0227,-0.0223,-0.0218,-0.0214,-0.0201,-0.0187,-0.0172,-0.0164,-0.0153,-0.0146,-0.0128,-0.0141,-0.0141,-0.0142,-0.0135,-0.0101,-0.0098,-0.0136,-0.0136,-0.0136,0,0,-0.0191,-0.0201,-0.021,-0.0225,-0.0227,-0.0232,-0.0224,-0.0233,-0.0228,-0.0212,-0.0203,-0.0191,-0.0171,-0.0159,-0.0154,-0.0151,-0.0125,-0.0142,-0.0142,-0.0135,-0.0101,-0.0097,-0.0093,-0.0136,-0.0136,-0.0136,0,0,-0.0211,-0.022,-0.0239,-0.0241,-0.0249,-0.0244,-0.0248,-0.0247,-0.0239,-0.0234,-0.0214,-0.0197,-0.0185,-0.0162,-0.015,-0.0148,-0.013,-0.0149,-0.0144,-0.0112,-0.0108,-0.0104,-0.0088,-0.0083,-0.0148,-0.0148,-0.0148,0,-0.0216,-0.0238,-0.0244,-0.0256,-0.0255,-0.025,-0.0256,-0.025,-0.0243,-0.023,-0.0233,-0.0194,-0.0182,-0.0149,-0.0148,-0.0147,-0.0132,-0.0143,-0.0111,-0.0107,-0.0104,-0.0088,-0.0082,-0.0148,-0.0148,-0.0148,-0.0148,0,-0.0245,-0.0257,-0.0268,-0.0278,-0.0277,-0.0284,-0.0273,-0.0265,-0.0255,-0.0242,-0.0215,-0.0197,-0.0169,-0.0165,-0.0156,-0.0122,-0.0123,-0.0117,-0.0108,-0.01,-0.0085,-0.0078,-0.0149,-0.0149,-0.0149,-0.0148,0,0,-0.0266,-0.0284,-0.0287,-0.0285,-0.0285,-0.0285,-0.0275,-0.0257,-0.0241,-0.023,-0.0207,-0.0178,-0.0164,-0.0149,-0.0134,-0.0107,-0.0075,-0.0103,-0.0101,-0.0085,-0.0013,-0.0087,-0.0087,-0.0063,-0.0062,-0.0061,-0.0017,0,-0.0283,-0.0305,-0.0307,-0.031,-0.0313,-0.0295,-0.0281,-0.0261,-0.0243,-0.0222,-0.0191,-0.017,-0.0159,-0.0147,-0.0118,-0.0087,-0.0058,-0.0088,-0.0025,-0.0023,-0.0087,-0.0082,-0.0057,-0.0012,-0.0011,-0.001,-0.0009,0,-0.0307,-0.0315,-0.0327,-0.0311,-0.031,-0.031,-0.0276,-0.0263,-0.0228,-0.0211,-0.0181,-0.0163,-0.0124,-0.0122,-0.0051,-0.0072,-0.004,-0.0017,-0.0014,-0.0073,-0.0085,-0.0019,0.0002,0.0001,0.0,-0.0,-0.0001,0,-0.0312,-0.0323,-0.0329,-0.0328,-0.0315,-0.0308,-0.0295,-0.0262,-0.0244,-0.0208,-0.0199,-0.0146,-0.0132,-0.0075,-0.005,-0.0037,0.0011,0.0038,0.0007,0.0002,0.006,0.0056,0.0098,0.0098,0.0098,0.0098,0.0098,0,-0.0321,-0.0326,-0.0335,-0.0338,-0.0331,-0.0317,-0.0303,-0.0277,-0.0249,-0.0227,-0.0198,-0.0179,-0.012,-0.0096,-0.0049,-0.0026,0.0014,0.0009,0.001,0.0053,0.0047,0.0064,0.0059,0.01,0.0099,0.0099,0.0099,0,-0.0325,-0.0335,-0.0342,-0.0339,-0.0339,-0.0334,-0.032,-0.0306,-0.0277,-0.0252,-0.0243,-0.0203,-0.0174,-0.0141,-0.0067,-0.0044,-0.0002,-0.0003,0.0013,0.0014,-0.0023,-0.0028,0.0002,-0.0,-0.0002,-0.0004,-0.0005,0,-0.0329,-0.0338,-0.035,-0.0357,-0.0361,-0.0357,-0.0353,-0.0324,-0.0314,-0.0263,-0.0258,-0.0234,-0.021,-0.0156,-0.0129,-0.0071,-0.0063,-0.0037,0.0004,-0.003,-0.0031,-0.0034,-0.0037,-0.0008,-0.0009,-0.0009,-0.001,0,-0.0334,-0.0347,-0.0351,-0.0369,-0.0378,-0.0375,-0.0373,-0.0359,-0.0318,-0.0307,-0.0242,-0.0207,-0.02,-0.0159,-0.0157,-0.0104,-0.0047,-0.0055,-0.0049,-0.001,-0.0042,-0.0041,-0.0042,-0.0016,-0.0015,-0.0014,-0.0014,0,-0.0342,-0.0347,-0.0364,-0.0373,-0.0383,-0.0378,-0.0373,-0.0349,-0.0324,-0.0263,-0.0248,-0.021,-0.0191,-0.0179,-0.0163,-0.0151,-0.0113,-0.0064,-0.0057,-0.0049,-0.0095,-0.0144,-0.0145,0,0,0,0,0,-0.0355,-0.0361,-0.0367,-0.0368,-0.0375,-0.0384,-0.0378,-0.037,-0.0339,-0.0285,-0.0253,-0.0232,-0.0192,-0.0185,-0.0178,-0.0213,-0.014,-0.0206,-0.0087,-0.0051,-0.0044,-0.0097,0,0,0,0,0,0,-0.0367,-0.0375,-0.0368,-0.0364,-0.0364,-0.0366,-0.0362,-0.0341,-0.0308,-0.0271,-0.0255,-0.0228,-0.0211,-0.0194,-0.0176,-0.0178,-0.0098,-0.0196,-0.0195,-0.0056,-0.0049,-0.0043,-0.0095,0,0,0,0,0]}]]